Date,TemperatureHighF,TemperatureAvgF,TemperatureLowF,DewpointHighF,DewpointAvgF,DewpointLowF,HumidityHigh,HumidityAvg,HumidityLow,PressureMaxIn,PressureMinIn,WindSpeedMaxMPH,WindSpeedAvgMPH,GustSpeedMaxMPH,PrecipitationSumIn
2013-1-1,56,52,49,52,48,46,96,89,78,30.11,29.92,20,4,20,0.02
2013-1-2,51,48,46,50,47,46,100,97,96,30.02,29.90,22,8,22,0.01
2013-1-3,44,43,42,39,37,35,83,79,76,30.21,30.10,19,9,19,0.02
2013-1-4,48,44,41,42,37,32,85,76,63,30.27,30.15,18,8,18,0.02
2013-1-5,46,43,40,41,36,30,88,74,59,30.37,30.21,22,8,22,0.00
2013-1-6,47,46,45,46,43,41,95,87,81,30.24,30.05,16,2,16,0.13
2013-1-7,49,46,44,45,41,39,95,81,72,30.42,30.09,24,11,24,0.13
2013-1-8,57,50,46,55,47,41,93,89,81,30.43,30.34,16,6,16,0.00
2013-1-9,61,54,49,56,52,48,96,92,83,30.41,30.32,11,2,11,0.00
2013-1-10,54,51,48,52,47,44,96,86,75,30.50,30.36,22,7,22,0.00
2013-1-11,69,59,48,63,56,45,97,89,75,30.43,30.12,18,5,18,0.26
2013-1-12,61,58,54,60,58,53,100,98,96,30.16,30.08,10,2,10,0.27
2013-1-13,69,60,52,65,58,52,99,95,86,30.15,30.08,14,2,14,0.01
2013-1-14,71,65,56,66,62,55,97,92,81,30.18,30.09,14,3,14,0.00
2013-1-15,63,54,50,62,54,50,98,97,93,30.18,30.06,22,7,22,0.01
2013-1-16,69,60,52,65,59,50,99,95,87,30.07,29.94,18,4,18,0.01
2013-1-17,62,54,46,61,54,44,99,98,94,29.99,29.77,42,11,42,0.83
2013-1-18,47,44,42,45,36,29,95,76,54,30.52,29.84,41,18,41,0.83
2013-1-19,52,47,42,48,42,35,96,84,75,30.46,30.15,20,6,20,0.00
2013-1-20,60,54,50,52,48,46,92,83,65,30.15,29.95,18,4,18,0.00
2013-1-21,59,54,48,52,47,41,89,78,54,30.05,29.84,19,5,19,0.00
2013-1-22,54,42,36,47,24,13,81,48,33,30.25,29.88,32,16,32,0.00
2013-1-23,41,34,31,28,17,10,69,49,41,30.35,30.11,22,8,22,0.00
2013-1-24,49,38,30,41,27,13,78,65,48,30.50,29.94,40,18,40,0.00
2013-1-25,39,33,30,37,28,17,95,79,58,30.48,30.05,25,8,25,0.39
2013-1-26,37,35,33,35,33,31,100,91,85,30.36,30.08,19,10,19,0.39
2013-1-27,40,38,36,33,30,28,85,73,64,30.55,30.36,23,10,23,0.00
2013-1-28,56,45,38,55,41,33,97,89,80,30.49,30.21,14,5,14,0.00
2013-1-29,63,55,47,58,54,46,98,94,82,30.21,30.10,14,5,14,0.01
2013-1-30,69,64,58,65,61,57,98,91,82,30.13,29.63,31,7,31,0.02
2013-1-31,69,56,49,65,47,34,98,73,49,30.02,29.46,40,15,40,0.20
2013-2-1,51,44,36,39,29,16,72,55,40,30.35,29.95,39,17,39,0.00
2013-2-2,47,38,33,43,25,16,89,59,43,30.38,30.00,20,5,20,0.00
2013-2-3,49,46,44,44,40,36,88,80,72,30.00,29.83,23,9,23,0.00
2013-2-4,48,42,39,40,30,24,77,63,47,30.12,29.94,27,8,27,0.00
2013-2-5,57,52,46,50,45,40,89,77,67,30.03,29.86,19,6,19,0.00
2013-2-6,56,51,49,49,46,42,92,84,60,30.24,29.94,17,4,17,0.00
2013-2-7,59,53,50,55,50,46,94,88,77,30.27,29.91,29,9,29,0.47
2013-2-8,63,54,49,62,52,40,98,91,71,29.91,29.41,35,15,37,3.27
2013-2-9,49,45,42,41,34,29,74,65,52,30.32,29.91,36,21,36,0.01
2013-2-10,50,45,42,47,38,28,91,76,55,30.47,30.30,17,7,17,0.00
2013-2-11,62,59,50,60,57,47,97,92,80,30.31,29.86,27,7,27,0.25
2013-2-12,60,55,53,58,50,42,96,84,56,30.02,29.87,20,4,20,0.03
2013-2-13,56,52,48,55,50,46,98,95,89,29.98,29.59,29,6,29,0.03
2013-2-14,52,46,44,49,42,39,92,85,79,30.07,29.73,25,8,25,0.04
2013-2-15,54,48,44,45,42,34,94,81,51,30.08,29.93,17,5,17,0.00
2013-2-16,49,46,38,47,42,36,95,88,81,29.93,29.63,36,12,36,0.17
2013-2-17,39,36,34,36,26,18,91,67,47,30.24,29.75,35,22,35,0.18
2013-2-18,46,38,33,36,23,16,70,55,35,30.43,30.24,29,8,29,0.00
2013-2-19,62,54,45,56,49,36,94,85,69,30.30,29.86,28,6,28,0.03
2013-2-20,50,48,45,47,43,31,91,82,61,30.01,29.90,22,10,22,0.03
2013-2-23,50,45,47,50,39,-100,100,92,97,29.91,-32.77,17,-57,17,0.08
2013-2-24,52,48,44,49,46,43,99,95,88,29.99,29.71,21,5,21,0.10
2013-2-25,47,43,41,46,37,34,97,80,73,30.17,29.98,31,12,31,0.01
2013-2-26,66,55,44,65,53,41,98,94,86,30.10,29.56,27,8,27,1.15
2013-2-27,60,53,50,59,49,45,98,87,74,29.76,29.58,27,7,27,1.16
2013-2-28,52,50,48,48,42,37,88,76,62,29.78,29.66,24,12,24,0.00
2013-3-1,50,46,43,38,36,33,76,67,59,29.86,29.77,25,11,25,0.00
2013-3-2,48,45,42,39,36,30,79,69,59,29.86,29.76,23,7,23,0.00
2013-3-3,45,42,39,34,30,27,74,64,55,29.88,29.80,27,11,27,0.00
2013-3-4,47,41,36,37,29,25,76,62,47,30.06,29.88,27,14,27,0.00
2013-3-5,53,48,44,51,39,30,93,71,57,30.10,29.63,17,4,17,0.04
2013-3-6,57,48,42,56,43,35,95,83,67,29.79,29.44,48,22,48,0.05
2013-3-7,50,45,42,39,37,36,82,76,62,30.04,29.79,37,21,37,0.05
2013-3-8,49,47,42,39,35,31,71,64,55,30.14,30.02,35,20,35,0.00
2013-3-9,51,47,43,43,38,35,79,72,58,30.27,30.13,26,12,26,0.00
2013-3-10,52,48,45,48,43,34,93,83,61,30.29,30.23,16,7,16,0.00
2013-3-11,64,56,49,53,50,47,94,83,64,30.25,29.99,14,5,14,0.00
2013-3-12,62,58,54,61,56,52,98,92,83,30.00,29.75,22,6,22,0.55
2013-3-13,55,50,46,54,44,37,100,78,60,30.01,29.82,27,9,27,0.55
2013-3-14,50,43,40,40,32,27,70,65,58,30.15,30.00,30,19,30,0.00
2013-3-15,54,51,45,46,38,27,79,63,46,30.15,29.92,25,8,25,0.00
2013-3-16,61,57,54,54,51,46,86,80,70,29.93,29.67,29,8,29,0.00
2013-3-17,58,51,47,53,48,44,95,90,83,30.15,29.80,29,12,29,0.00
2013-3-18,56,52,48,54,50,46,97,93,91,30.14,29.88,29,9,29,0.00
2013-3-19,61,56,52,59,54,48,98,91,72,29.93,29.72,22,5,22,0.27
2013-3-20,57,52,49,49,30,20,74,44,30,30.08,29.78,25,8,25,0.00
2013-3-21,52,46,41,43,36,23,86,68,48,29.89,29.64,33,13,33,0.00
2013-3-22,48,41,36,40,27,20,74,58,47,30.04,29.89,26,10,26,0.00
2013-3-23,52,49,44,42,38,34,85,68,56,30.01,29.89,17,4,17,0.00
2013-3-24,58,50,43,57,46,39,96,87,68,29.94,29.39,40,10,40,0.11
2013-3-25,49,47,45,46,42,34,95,83,58,29.74,29.42,32,14,32,0.01
2013-3-26,49,46,42,39,35,32,74,66,56,30.01,29.74,30,12,30,0.01
2013-3-27,51,47,43,38,36,32,76,65,50,30.13,30.01,25,14,25,0.00
2013-3-28,52,47,42,40,35,32,78,64,52,30.21,30.09,26,12,26,0.00
2013-3-29,49,47,44,39,37,31,79,68,52,30.27,30.21,18,10,18,0.00
2013-3-30,60,55,52,50,47,42,86,74,53,30.20,30.10,14,3,14,0.00
2013-3-31,66,58,51,58,53,45,89,82,73,30.13,29.83,23,7,23,0.00
2013-4-1,62,58,55,58,56,54,96,93,85,29.87,29.79,19,4,19,0.01
2013-4-2,58,51,48,56,40,34,96,68,53,30.12,29.88,29,8,29,0.01
2013-4-3,53,49,47,49,39,31,91,70,49,30.29,30.09,25,8,25,0.00
2013-4-4,60,51,47,59,44,32,97,77,51,30.33,29.77,23,11,24,0.95
2013-4-5,63,52,47,62,50,44,98,92,82,29.98,29.66,25,10,25,1.31
2013-4-6,53,50,46,51,45,42,97,83,70,30.28,29.97,29,11,29,0.01
2013-4-7,66,58,50,56,51,45,92,79,60,30.26,30.15,13,4,13,0.00
2013-4-8,70,63,57,61,58,53,93,83,73,30.19,30.10,18,4,18,0.00
2013-4-9,69,64,60,63,60,58,94,89,81,30.20,30.08,20,5,20,0.00
2013-4-10,70,64,60,64,61,58,97,91,80,30.12,29.98,23,7,23,0.00
2013-4-11,73,66,60,68,63,59,96,91,82,30.01,29.88,20,6,20,0.01
2013-4-12,68,66,63,67,64,62,98,95,91,29.89,29.68,22,7,22,0.57
2013-4-13,66,60,54,64,54,46,98,81,62,30.00,29.71,28,8,28,0.58
2013-4-14,71,61,54,58,54,41,95,78,38,30.11,29.99,15,3,15,0.01
2013-4-15,68,62,60,61,58,53,96,84,76,30.18,29.98,19,5,24,0.09
2013-4-16,71,65,60,64,61,58,97,87,76,30.26,30.16,13,4,13,0.38
2013-4-17,72,67,59,64,61,57,94,81,69,30.22,30.14,12,2,12,0.00
2013-4-18,75,68,62,64,62,60,93,82,67,30.22,30.08,17,3,17,0.00
2013-4-19,75,70,66,70,67,64,96,92,85,30.09,29.88,26,8,26,0.07
2013-4-20,69,60,56,68,56,49,98,85,72,30.24,29.83,29,10,29,1.65
2013-4-21,58,55,52,49,46,42,84,71,58,30.44,30.22,33,15,33,0.00
2013-4-22,58,56,54,57,54,49,96,92,84,30.39,30.08,37,21,37,0.43
2013-4-23,58,56,53,56,53,50,97,92,84,30.16,30.03,31,16,31,0.44
2013-4-24,67,61,50,60,56,48,94,85,76,30.18,30.04,19,5,19,0.00
2013-4-25,64,59,54,62,54,46,96,86,73,30.26,30.03,28,9,28,0.01
2013-4-26,60,58,55,52,50,44,85,74,65,30.39,30.24,20,8,20,0.01
2013-4-27,63,60,56,55,52,48,87,76,64,30.37,30.28,18,7,18,0.00
2013-4-28,67,61,54,61,54,45,84,76,67,30.28,30.12,17,5,17,0.00
2013-4-29,66,63,62,64,60,56,96,89,76,30.13,29.97,15,3,15,0.05
2013-4-30,66,64,62,63,62,60,97,93,89,30.09,29.97,16,8,16,0.06
2013-5-1,70,63,61,66,61,58,97,93,87,30.24,30.06,23,10,24,0.01
2013-5-2,64,63,62,63,60,59,96,91,82,30.27,30.17,28,13,28,0.04
2013-5-3,64,62,58,60,56,49,92,82,68,30.20,30.12,30,15,30,0.00
2013-5-4,61,59,58,58,56,54,95,88,85,30.12,30.02,31,16,31,0.02
2013-5-5,66,62,58,63,60,56,95,92,89,30.03,29.97,22,12,22,0.04
2013-5-6,70,65,62,64,61,59,94,88,73,29.99,29.87,22,5,22,0.51
2013-5-7,71,64,57,64,60,55,96,87,70,29.97,29.84,22,3,22,0.04
2013-5-8,71,64,57,62,59,55,95,83,66,30.02,29.92,19,3,19,0.05
2013-5-9,72,68,64,65,63,62,92,87,75,30.05,29.95,15,3,15,0.00
2013-5-10,76,71,65,68,66,63,95,85,71,30.08,30.00,16,3,16,0.01
2013-5-11,77,71,67,71,68,64,95,90,81,30.02,29.81,23,6,23,0.00
2013-5-12,73,68,63,68,64,60,96,86,65,29.95,29.74,17,6,17,0.00
2013-5-13,68,62,59,62,50,44,83,65,52,30.11,29.94,28,12,28,0.00
2013-5-14,66,61,58,51,42,33,71,51,34,30.21,30.11,23,9,23,0.00
2013-5-15,72,69,64,65,62,52,86,77,64,30.14,29.90,31,10,31,0.00
2013-5-16,74,71,67,69,66,64,91,86,82,29.94,29.87,19,7,24,0.00
2013-5-17,77,72,68,69,67,63,92,83,65,30.12,29.94,14,4,14,0.00
2013-5-18,78,73,68,72,69,66,95,88,79,30.16,30.09,13,2,13,0.00
2013-5-19,80,74,69,71,69,66,92,84,72,30.17,30.09,16,4,16,0.00
2013-5-20,78,74,70,70,69,66,93,86,70,30.14,30.05,23,5,23,0.00
2013-5-21,78,74,70,72,70,68,94,89,82,30.07,29.98,21,6,21,0.00
2013-5-22,80,75,72,73,71,70,94,88,78,30.05,29.97,19,6,19,0.19
2013-5-23,74,71,69,72,70,68,97,96,92,30.01,29.82,26,6,26,0.43
2013-5-24,76,70,62,71,66,53,97,86,68,30.09,29.75,38,10,38,0.46
2013-5-25,68,61,54,54,47,42,75,60,44,30.19,30.08,29,13,29,0.00
2013-5-26,70,66,61,59,52,48,77,62,48,30.21,30.12,16,4,16,0.00
2013-5-27,74,68,57,62,55,48,90,66,43,30.27,30.19,12,2,12,0.00
2013-5-28,77,73,66,68,64,60,87,75,64,30.27,30.18,16,3,16,0.00
2013-5-29,75,73,71,70,69,68,91,88,83,30.26,30.19,10,2,10,0.00
2013-6-6,79,74,74,73,63,-100,95,78,74,29.99,29.88,20,-41,0,0.23
2013-6-7,75,75,75,74,73,73,95,95,95,29.88,29.87,0,0,0,0.23
2013-6-10,81,78,74,76,75,72,95,91,86,30.00,29.97,0,0,0,0.03
2013-6-11,82,78,76,76,74,73,94,88,78,29.99,29.84,1,0,0,0.06
2013-6-12,83,80,76,75,74,71,95,83,72,29.94,29.84,22,5,0,0.01
2013-6-13,83,79,75,79,76,70,97,90,76,29.86,29.59,37,9,0,0.02
2013-6-14,78,74,70,72,64,56,90,74,60,29.98,29.61,32,14,0,0.20
2013-6-15,80,75,65,67,64,58,80,69,48,30.09,29.98,18,5,0,0.00
2013-6-16,80,77,74,72,70,66,85,78,72,30.12,30.02,24,9,0,0.00
2013-6-17,80,77,75,73,71,-100,90,82,77,30.05,29.96,22,2,0,0.00
2013-6-18,80,76,73,76,74,71,96,92,86,29.99,29.78,23,6,0,0.32
2013-6-19,78,73,70,75,70,66,95,89,83,30.08,29.80,28,10,0,0.01
2013-6-20,74,72,71,70,68,65,91,87,77,30.18,30.05,23,12,0,0.02
2013-6-21,80,77,72,75,73,70,94,89,81,30.18,30.13,20,8,0,0.02
2013-6-22,80,76,73,75,73,70,95,89,76,30.20,30.13,20,3,0,0.01
2013-6-23,81,78,76,76,74,72,93,90,78,30.21,30.14,19,4,0,0.02
2013-6-24,83,79,76,77,75,73,94,90,83,30.21,30.08,23,6,0,0.01
2013-6-25,82,79,77,78,76,72,94,90,83,30.13,29.98,24,9,0,0.01
2013-6-26,82,79,76,78,76,72,95,90,84,30.03,29.91,23,8,0,0.00
2013-6-27,82,79,76,78,76,71,94,89,79,29.93,29.75,29,10,0,0.07
2013-6-28,82,79,74,79,77,72,96,93,89,29.79,29.63,26,10,0,2.01
2013-6-29,82,79,76,78,76,74,95,90,85,29.79,29.63,32,11,0,0.19
2013-6-30,81,78,73,77,75,72,96,91,84,29.92,29.77,25,7,0,0.03
2013-7-1,80,77,75,77,75,72,95,92,88,30.07,29.89,24,6,0,0.18
2013-7-2,84,80,74,79,76,72,95,90,83,30.23,30.06,26,5,0,0.07
2013-7-3,84,80,77,78,77,74,96,89,81,30.28,30.18,18,4,0,0.10
2013-7-4,84,80,77,77,75,74,93,85,75,30.29,30.23,18,4,0,0.09
2013-7-5,85,81,78,77,76,74,93,84,76,30.29,30.19,15,4,0,0.09
2013-7-6,84,81,78,76,75,74,90,83,72,30.25,30.14,15,4,0,0.00
2013-7-7,84,80,78,76,74,74,90,82,75,30.19,30.08,21,6,0,0.00
2013-7-8,83,80,77,76,74,73,90,84,75,30.17,30.09,21,7,0,0.00
2013-7-9,83,79,77,78,76,74,93,89,82,30.18,30.08,20,5,0,0.00
2013-7-10,84,80,76,78,76,74,94,87,80,30.12,29.98,19,7,0,0.00
2013-7-11,83,79,75,78,76,73,95,89,82,30.00,29.89,22,6,0,0.08
2013-7-12,82,76,72,76,73,71,96,92,81,29.99,29.87,31,4,18,1.15
2013-7-13,85,81,75,78,76,74,96,85,76,30.21,29.97,20,5,20,0.03
2013-7-14,84,81,77,78,76,74,94,86,75,30.27,30.19,16,4,16,0.03
2013-7-15,85,81,76,77,76,74,94,85,72,30.27,30.21,13,2,13,0.00
2013-7-16,86,82,78,80,77,75,93,83,72,30.23,30.13,16,6,16,0.00
2013-7-17,87,83,78,77,75,72,91,78,63,30.17,30.07,14,4,14,0.01
2013-7-18,86,82,78,78,76,73,90,81,70,30.12,30.05,13,4,13,0.01
2013-7-19,85,82,79,79,77,76,91,85,79,30.10,30.00,24,9,24,0.00
2013-7-20,84,80,78,78,76,74,91,86,77,30.04,29.96,25,10,33,0.00
2013-7-21,83,79,77,78,75,74,93,89,81,30.01,29.91,23,8,23,0.00
2013-7-22,83,79,77,78,76,75,95,91,83,29.96,29.81,24,6,24,0.00
2013-7-23,82,79,77,77,76,75,95,90,84,29.85,29.71,24,9,24,0.00
2013-7-24,86,80,78,79,77,76,94,90,78,29.81,29.70,18,4,18,0.00
2013-7-25,81,78,73,77,74,71,95,89,76,29.96,29.75,23,8,23,0.02
2013-7-26,79,76,73,72,70,67,89,83,76,30.07,29.96,20,6,20,0.02
2013-7-27,83,78,74,76,72,68,93,82,65,30.04,29.95,14,4,14,0.00
2013-7-28,84,80,75,78,76,73,96,88,73,30.01,29.89,18,5,18,0.01
2013-7-29,83,79,74,78,76,71,93,89,82,30.11,29.99,23,5,23,0.25
2013-7-30,81,78,75,76,73,70,93,85,71,30.17,30.10,13,4,13,0.16
2013-7-31,81,77,75,73,72,70,94,84,69,30.11,30.02,12,1,12,0.16
2013-8-1,80,77,72,76,74,70,95,90,81,30.02,29.86,21,4,23,0.19
2013-8-2,83,80,79,79,77,76,94,90,84,30.01,29.91,17,6,17,0.01
2013-8-3,84,80,78,79,78,77,95,91,83,30.01,29.90,19,6,19,0.01
2013-8-4,80,79,77,78,73,64,94,82,61,29.98,29.83,20,7,20,0.06
2013-8-5,80,77,73,69,63,55,78,63,45,30.06,29.96,14,5,14,0.06
2013-8-6,82,78,72,71,69,66,86,75,65,30.06,29.98,14,2,14,0.00
2013-8-7,84,82,79,74,72,71,80,73,68,30.09,30.04,15,6,15,0.00
2013-8-8,85,82,80,79,77,76,93,86,79,30.06,30.00,17,3,17,0.00
2013-8-9,84,82,80,79,78,76,94,89,82,30.06,29.99,23,8,23,0.00
2013-8-10,85,82,76,80,78,73,93,89,80,30.12,29.99,30,9,30,0.27
2013-8-11,86,81,77,80,78,74,94,90,77,30.08,29.99,39,4,39,0.27
2013-8-12,86,82,76,81,78,73,94,90,77,30.06,29.91,40,6,40,0.33
2013-8-13,84,80,75,80,77,72,96,92,86,29.93,29.76,26,7,26,1.79
2013-8-14,81,76,73,80,69,62,96,80,69,30.03,29.75,24,12,30,2.84
2013-8-15,74,72,67,71,66,63,94,83,70,30.08,30.00,18,8,18,0.06
2013-8-16,75,74,72,73,71,69,93,91,87,30.09,29.98,22,11,22,0.07
2013-8-17,82,76,73,77,74,70,97,93,84,30.12,30.03,19,5,19,0.93
2013-8-18,84,78,75,78,75,73,96,90,78,30.16,30.05,18,6,18,0.93
2013-8-19,79,76,74,77,74,71,95,92,86,30.14,30.06,14,3,14,0.09
2013-8-20,81,77,74,74,73,71,92,86,75,30.15,30.05,14,4,14,0.09
2013-8-21,84,79,75,77,73,69,95,84,65,30.20,30.09,13,2,13,0.00
2013-8-22,83,81,78,79,77,74,94,88,81,30.11,29.97,19,6,19,0.00
2013-8-23,85,79,74,78,75,72,95,87,69,30.00,29.88,25,5,25,0.74
2013-8-24,79,77,73,75,70,65,96,79,69,30.22,29.96,39,13,39,0.79
2013-8-25,76,75,73,69,66,62,79,73,66,30.29,30.21,28,12,28,0.00
2013-8-26,74,74,74,67,67,66,79,79,78,30.24,30.23,10,8,10,0.00
2013-8-27,81,79,77,71,68,65,83,70,62,30.02,29.94,20,9,20,0.00
2013-8-28,82,79,75,77,74,71,92,86,82,29.98,29.86,20,8,20,0.00
2013-8-29,81,78,75,77,75,71,93,88,84,29.95,29.78,24,10,24,0.05
2013-8-30,80,77,75,73,72,70,92,84,75,30.01,29.92,17,6,17,0.00
2013-8-31,84,79,73,77,74,71,94,86,72,29.97,29.88,15,2,15,0.19
2013-9-1,83,80,78,79,77,75,94,91,81,29.92,29.82,20,6,20,0.03
2013-9-2,84,80,75,80,77,74,96,91,87,29.89,29.79,27,9,27,0.30
2013-9-3,84,78,74,79,76,70,96,91,78,29.91,29.80,35,6,35,0.11
2013-9-4,82,78,75,75,74,70,95,87,71,30.05,29.90,13,3,13,0.11
2013-9-5,83,79,75,77,75,73,97,88,75,30.06,29.98,12,2,12,0.00
2013-9-6,81,78,74,76,72,64,90,81,67,30.08,29.99,26,8,26,0.00
2013-9-7,76,74,69,66,62,59,76,67,56,30.07,29.97,18,7,18,0.00
2013-9-8,82,75,66,72,67,59,83,74,69,29.97,29.87,14,3,14,0.00
2013-9-9,82,79,76,75,73,69,90,82,66,30.13,29.96,14,4,14,0.00
2013-9-10,83,79,76,75,73,70,90,82,71,30.20,30.12,14,2,14,0.00
2013-9-11,83,79,74,73,71,70,88,77,66,30.18,30.06,14,2,14,0.00
2013-9-12,83,79,76,75,73,71,88,81,71,30.07,29.78,18,4,18,0.00
2013-9-13,83,79,77,76,73,67,87,80,66,29.80,29.69,23,9,23,0.01
2013-9-14,77,74,71,68,67,64,85,77,66,30.09,29.79,25,11,25,0.00
2013-9-15,76,73,70,68,64,61,88,75,66,30.20,30.08,16,5,16,0.00
2013-9-16,82,76,71,76,72,67,96,87,79,30.13,30.00,27,4,27,1.11
2013-9-17,75,72,68,69,62,57,87,73,65,30.23,30.09,29,14,29,1.11
2013-9-18,72,70,68,62,60,58,77,71,64,30.21,30.13,19,8,20,0.00
2013-9-19,73,70,68,66,63,60,84,78,73,30.14,30.05,17,7,17,0.00
2013-9-20,75,72,69,68,64,61,87,76,64,30.06,29.96,12,4,15,0.00
2013-9-21,82,76,71,73,70,68,92,83,69,29.96,29.74,16,4,16,0.01
2013-9-22,78,73,69,74,70,65,97,91,78,29.78,29.64,32,9,32,0.05
2013-9-23,72,68,64,66,59,55,83,72,66,30.05,29.78,31,13,31,0.05
2013-9-24,68,65,64,57,55,52,79,70,58,30.07,29.94,17,5,17,0.00
2013-9-25,69,68,68,62,60,57,79,75,69,29.91,29.83,13,6,33,0.00
2013-9-26,73,70,68,67,64,62,83,80,76,29.93,29.81,22,9,22,0.02
2013-9-27,71,70,69,64,62,58,82,76,64,30.08,29.93,29,14,29,0.00
2013-9-28,72,70,68,65,64,62,85,80,74,30.13,30.05,26,14,26,0.00
2013-9-29,72,69,67,67,65,62,94,86,81,30.06,29.96,22,11,22,0.00
2013-9-30,71,68,65,66,64,59,93,87,69,30.03,29.93,19,10,19,0.00
2013-10-1,74,68,66,64,62,58,91,80,59,30.09,30.00,13,3,13,0.00
2013-10-2,78,72,67,70,66,61,91,82,71,30.10,30.01,12,3,12,0.00
2013-10-3,79,74,71,71,69,62,93,86,59,30.12,30.07,12,2,12,0.00
2013-10-4,80,74,69,73,69,65,96,83,63,30.12,30.05,11,1,11,0.01
2013-10-5,81,75,72,72,70,65,93,85,61,30.10,30.03,12,2,12,0.00
2013-10-6,81,76,71,74,71,69,96,85,70,30.07,29.97,15,2,15,0.01
2013-10-7,82,78,75,74,73,71,93,85,72,29.97,29.85,20,4,20,0.01
2013-10-8,76,70,67,74,68,64,95,93,91,30.05,29.88,37,16,37,0.73
2013-10-9,73,70,67,72,68,65,98,96,93,30.01,29.80,39,18,39,0.87
2013-10-10,73,68,64,72,67,62,98,96,93,29.83,29.73,24,12,24,0.01
2013-10-11,67,65,63,64,63,62,97,94,91,29.91,29.79,19,10,19,0.02
2013-10-12,69,67,66,67,65,63,94,92,90,30.00,29.88,10,3,12,0.00
2013-10-13,74,70,69,72,68,-100,96,93,92,30.07,29.98,21,1,21,0.00
2013-10-14,72,71,69,70,68,66,95,91,86,30.10,30.04,30,15,30,0.01
2013-10-15,72,70,68,70,68,65,95,93,89,30.06,29.93,28,15,28,0.00
2013-10-16,71,70,68,69,68,67,94,93,92,29.95,29.90,19,8,19,0.00
2013-10-17,74,70,66,69,67,65,98,92,79,29.94,29.84,15,4,15,0.00
2013-10-18,72,71,70,70,68,65,94,90,84,29.98,29.85,16,7,16,0.00
2013-10-19,74,72,69,72,70,68,97,95,91,29.91,29.81,15,3,15,0.34
2013-10-20,72,66,62,71,60,54,96,82,75,30.08,29.83,24,12,24,0.00
2013-10-21,68,65,60,63,58,51,88,78,67,30.11,29.95,16,7,16,0.00
2013-10-22,67,66,65,63,59,52,88,78,66,29.96,29.80,19,6,19,0.01
2013-10-23,70,64,60,62,58,50,96,83,66,29.89,29.61,32,9,32,0.66
2013-10-24,61,55,51,52,44,40,80,66,51,30.13,29.89,31,12,31,0.00
2013-10-25,57,54,50,45,39,34,75,58,45,30.30,30.13,26,12,26,0.00
2013-10-26,59,56,54,53,45,38,80,67,56,30.30,30.07,17,7,17,0.00
2013-10-27,62,57,52,50,48,45,84,70,60,30.13,30.04,15,3,15,0.00
2013-10-28,69,60,52,58,54,48,94,81,54,30.23,30.13,9,1,9,0.00
2013-10-29,62,62,61,58,58,57,87,86,84,30.23,30.21,4,1,4,0.00
2013-10-30,70,67,63,61,58,53,88,74,59,30.29,30.17,8,1,8,0.00
2013-10-31,74,68,59,69,64,58,96,89,78,30.20,29.99,21,3,21,0.00
2013-11-1,75,73,68,73,70,66,96,90,81,29.99,29.73,27,8,27,0.16
2013-11-2,74,67,64,72,65,59,97,91,78,29.83,29.65,25,8,25,0.97
2013-11-3,66,60,57,61,50,45,87,71,59,30.29,29.81,28,15,33,0.00
2013-11-4,59,56,54,55,47,42,87,71,60,30.45,30.28,28,16,28,0.00
2013-11-5,68,63,59,60,59,54,93,85,73,30.42,30.35,28,11,28,0.00
2013-11-6,67,64,62,66,62,60,98,95,91,30.35,30.09,21,7,33,0.14
2013-11-7,72,67,60,70,65,56,98,95,84,30.09,29.85,26,6,26,0.11
2013-11-8,60,54,51,56,40,33,87,60,45,30.28,29.97,31,15,31,0.00
2013-11-9,59,55,51,53,43,34,83,65,51,30.34,30.15,13,3,13,0.00
2013-11-10,66,60,57,56,52,47,86,75,59,30.17,30.03,27,8,27,0.00
2013-11-11,59,54,49,50,46,44,91,75,67,30.28,30.12,28,8,28,0.00
2013-11-12,61,52,40,51,45,36,91,76,60,30.27,29.99,41,13,41,0.00
2013-11-13,44,42,40,38,31,26,89,66,52,30.45,30.26,41,20,41,0.01
2013-11-14,54,48,43,45,35,27,78,59,48,30.47,30.33,16,4,16,0.00
2013-11-15,65,57,46,61,51,43,93,82,60,30.36,30.20,12,1,12,0.11
2013-11-16,64,60,56,62,59,55,100,95,91,30.23,30.15,13,5,13,0.55
2013-11-17,69,64,58,68,64,57,98,97,94,30.16,29.95,14,2,14,0.00
2013-11-18,72,67,62,70,65,51,98,92,65,29.95,29.74,20,5,20,0.01
2013-11-19,62,54,50,51,43,40,76,67,58,30.22,29.83,28,16,28,0.00
2013-11-20,56,54,51,54,49,44,92,82,75,30.35,30.20,33,16,33,0.00
2013-11-21,59,57,55,57,56,53,98,94,91,30.40,30.32,14,6,19,0.11
2013-11-22,69,62,55,63,59,54,97,91,76,30.36,30.05,15,2,15,0.01
2013-11-23,64,57,53,61,53,46,97,87,77,30.06,29.98,22,8,22,0.01
2013-11-24,54,40,35,49,25,14,83,57,41,30.48,30.01,39,22,39,0.00
2013-11-25,44,39,34,41,32,20,89,74,55,30.54,30.34,27,10,27,0.00
2013-11-26,70,61,44,68,58,41,96,90,76,30.35,29.60,38,8,38,2.00
2013-11-27,69,52,42,68,49,35,98,91,78,30.05,29.35,37,18,37,3.76
2013-11-28,43,40,37,37,32,28,79,72,61,30.46,30.05,33,13,33,0.00
2013-11-29,49,45,43,40,36,31,83,70,58,30.55,30.44,24,12,24,0.00
2013-11-30,53,49,45,49,46,40,95,88,82,30.53,30.27,23,12,23,0.00
2013-12-1,53,49,45,52,48,44,97,96,93,30.28,29.99,18,6,18,0.08
2013-12-2,53,51,50,51,49,47,98,93,88,29.99,29.74,18,8,18,0.04
2013-12-3,56,51,48,51,46,40,95,83,59,30.02,29.81,15,4,15,0.00
2013-12-4,65,60,55,63,58,51,98,95,87,30.10,30.00,9,0,9,0.15
2013-12-5,71,63,54,68,62,53,99,96,90,30.16,30.08,13,2,13,0.01
2013-12-6,72,68,65,69,66,64,98,94,88,30.13,30.04,24,8,24,0.00
2013-12-7,68,51,48,66,48,45,98,92,86,30.37,30.05,30,18,30,0.25
2013-12-8,52,49,48,51,48,45,100,95,86,30.35,30.21,30,15,30,0.22
2013-12-9,67,55,47,65,54,46,100,97,94,30.21,30.05,16,3,16,0.00
2013-12-10,66,54,44,65,53,39,100,95,81,30.28,29.79,39,10,49,0.16
2013-12-11,48,44,42,39,34,28,81,67,52,30.44,30.26,24,7,24,0.00
2013-12-12,48,44,38,38,34,31,79,71,61,30.36,30.21,23,12,26,0.00
2013-12-13,50,44,36,41,31,25,79,59,42,30.40,30.27,18,5,18,0.00
2013-12-14,68,56,42,66,50,37,97,83,71,30.32,29.73,42,8,42,1.25
2013-12-15,63,55,48,63,52,38,100,91,66,30.02,29.65,27,8,27,0.40
2013-12-16,51,46,44,41,38,35,80,72,63,30.15,30.02,26,12,26,0.00
2013-12-17,61,58,52,52,49,43,84,74,66,30.13,29.90,31,10,31,0.00
2013-12-18,56,47,41,49,34,29,77,61,50,30.29,29.93,25,9,25,0.00
2013-12-19,59,50,37,51,42,31,90,75,59,30.33,30.25,18,3,18,0.00
2013-12-20,70,60,49,62,56,47,96,88,73,30.27,30.15,14,2,14,0.00
2013-12-21,73,67,63,68,64,60,96,90,78,30.19,30.10,15,3,15,0.00
2013-12-22,68,68,68,67,66,66,95,95,94,30.11,30.11,14,4,14,0.00
2013-12-23,73,69,54,69,66,53,96,92,89,30.12,29.99,24,8,24,0.08
2013-12-24,54,47,43,53,42,32,96,85,61,30.35,30.00,27,18,30,0.32
2013-12-25,46,41,38,44,35,25,92,79,59,30.48,30.32,31,14,31,0.00
2013-12-26,53,47,43,50,43,39,96,89,72,30.33,30.21,22,9,22,0.05
2013-12-27,50,48,46,42,40,37,83,73,64,30.39,30.28,20,11,22,0.00
2013-12-28,57,49,46,53,42,38,93,79,64,30.39,30.15,12,5,12,0.00
2013-12-29,71,64,54,67,60,52,97,87,75,30.15,29.69,37,9,37,0.40
2013-12-30,54,52,50,52,49,48,95,89,82,30.08,29.88,15,5,15,0.01
2013-12-31,52,49,44,48,43,37,94,82,61,30.34,30.05,23,6,23,0.00
2014-1-1,58,50,46,57,42,36,96,74,57,30.41,30.11,15,4,15,0.15
2014-1-2,62,53,49,62,52,49,99,98,93,30.12,29.44,31,3,31,0.84